Regional Weather Roundup
Issued by NWS

Home | Current Version | Previous Version | Text Only | Print | Product List | Glossary On
Versions: 1 2 3 4 5 6 7 8 9 10 11 12 13 14 15 16 17 18 19 20 21 22 23 24 25 26 27 28 29 30 31 32 33 34 35 36 37 38 39 40 41 42 43 44 45 46 47 48 49 50
000
ASUS42 KKEY 280810
RWRKEY

FLORIDA REGIONAL WEATHER ROUNDUP FOR THE FLORIDA KEYS
NATIONAL WEATHER SERVICE KEY WEST FLORIDA
400 AM EDT THU AUG 28 2014

...SOUTH FLORIDA AND THE KEYS...

CITY           SKY/WX    TMP DP  RH WIND       PRES   REMARKS
FORT MYERS     CLEAR     76  74  93 E7        29.94F
SW REGIONAL AP CLEAR     77  73  87 E7        29.95F
NAPLES         CLEAR     78  74  87 E7        29.93F
MIAMI          MOCLDY    80  75  84 CALM      29.95F
WEST KENDALL   MOCLDY    80  74  81 CALM      29.94F
HOMESTEAD      PTCLDY    78  76  92 SE2       29.95S
MARATHON       CLOUDY    84  78  82 S7        29.93F HX  95
BOCA CHICA NAS MOCLDY    83  77  82 S10       29.92F HX  92
KEY WEST INTL  MOCLDY    84  76  76 S13       29.93F HX  93

...INTERNATIONAL WEATHER...

CITY           SKY/WX    TMP DP  RH WIND       PRES   REMARKS
NASSAU BAHAMAS PTCLDY    81  73  78 SW3       29.97F
CANCUN MEXICO  PTCLDY    81  77  89 SW2       29.88F
COZUMEL MEXICO NOT AVBL

ADJACENT COASTAL WATERS...

STATION/POSITION TIME  SKY/WX   TEMP    WIND        PRES    WAVE
                                AIR SEA DIR/SP/G            HT/PER
                 (UTC)          (F)     (DEG/KT/KT) (MB)    (FT/S)
PULASKI SHOAL LI 0800            84     190/ 16/ 17 1012.4F
SAND KEY         0800            83     170/ 14/ 17 1013.1F
SOMBRERO KEY     0800            83     170/ 10/ 11 1014.2F
LONG KEY         0700            83 87  210/  7/  8 1014.6F
MOLASSES REEF    0800            83 87  230/ 11/ 13 1013.7F
FOWEY ROCKS      0800            83 87  190/  6/  7 1014.2F
Buoy 42080       NOT AVBL

$$


USA.gov is the U.S. government's official web portal to all federal, state and local government web resources and services.